Location: Catstown
(52.4386°N, 7.2633°W)
Time: 04:48:15
(UTC+00:00)

OBJECT-B - Pass Details

Date: 18 September 2020
Orbit: 421 x 433 km, 97.0° (Epoch: 09 October)

Event Time Altitude Azimuth Distance (km) Brightness Sun altitude
Exits shadow 20:34:37 39° 180° (S) 651 1.4 -18.1°
Maximum altitude 20:35:41 76° 258° (WSW) 444 0.9 -18.3°
Drops below altitude 10° 20:38:57 10° 344° (NNW) 1,526 4.2 -18.7°
Sets 20:40:58 0° 346° (NNW) 2,399 5.2 -19.0°
